Photometre #247[Polarized_P] Martova AOT

File : 20190925_247.hum

25/09/2019,04:18:14,TEMP=-2.1,BA=5.64,STAT.A
25/09/2019,04:22:17,TEMP=-1.7,BA=5.64,STAT.A
25/09/2019,04:26:59,TEMP=-1.2,BA=5.64,STAT.A
25/09/2019,04:32:38,TEMP=-0.7,BA=5.64,STAT.A
25/09/2019,04:39:26,TEMP=-0.1,BA=5.64,STAT.A
25/09/2019,04:47:50,TEMP=0.7,BA=5.64,STAT.A
25/09/2019,04:58:31,TEMP=1.9,BA=5.64,STAT.B
25/09/2019,05:06:08,TEMP=2.9,BA=5.64,STAT.A
25/09/2019,05:09:25,TEMP=3.2,BA=5.64,STAT.A
25/09/2019,05:15:57,TEMP=3.8,BA=5.64,STAT.A
25/09/2019,05:23:25,TEMP=4.4,BA=5.64,STAT.A
25/09/2019,05:32:04,TEMP=5.2,BA=5.68,STAT.C
25/09/2019,05:41:33,TEMP=6.0,BA=5.68,STAT.b=16.0
25/09/2019,05:42:29,TEMP=6.1,BA=5.68,STAT.A
25/09/2019,05:54:18,TEMP=7.0,BA=5.68,STAT.A
25/09/2019,06:09:01,TEMP=8.5,BA=5.68,STAT.A
25/09/2019,06:24:32,TEMP=10.1,BA=5.68,STAT.F
25/09/2019,06:39:32,TEMP=11.6,BA=5.64,STAT.D
25/09/2019,06:54:32,TEMP=12.7,BA=5.64,STAT.D
25/09/2019,07:09:32,TEMP=13.6,BA=5.64,STAT.D
25/09/2019,07:24:32,TEMP=14.0,BA=5.64,STAT.F
25/09/2019,07:39:34,TEMP=14.6,BA=5.64,STAT.D
25/09/2019,07:54:35,TEMP=14.9,BA=5.64,STAT.D
25/09/2019,08:09:32,TEMP=15.6,BA=5.64,STAT.D
25/09/2019,08:24:34,TEMP=16.0,BA=5.64,STAT.F
25/09/2019,08:39:32,TEMP=16.7,BA=5.64,STAT.D
25/09/2019,08:54:32,TEMP=16.9,BA=5.64,STAT.D
25/09/2019,09:09:33,TEMP=17.5,BA=5.64,STAT.D
25/09/2019,09:24:32,TEMP=17.5,BA=5.64,STAT.E
25/09/2019,09:39:32,TEMP=18.9,BA=5.64,STAT.D
25/09/2019,09:54:33,TEMP=19.0,BA=5.64,STAT.D
25/09/2019,10:09:32,TEMP=19.6,BA=5.64,STAT.D
25/09/2019,10:24:32,TEMP=19.7,BA=5.64,STAT.F
25/09/2019,10:39:32,TEMP=19.7,BA=5.64,STAT.D
25/09/2019,10:54:32,TEMP=19.4,BA=5.64,STAT.D
25/09/2019,11:09:32,TEMP=19.5,BA=5.64,STAT.D
25/09/2019,11:24:32,TEMP=19.5,BA=5.64,STAT.F
25/09/2019,11:39:33,TEMP=19.7,BA=5.64,STAT.D
25/09/2019,11:54:32,TEMP=19.2,BA=5.64,STAT.D
25/09/2019,12:09:32,TEMP=19.2,BA=5.64,STAT.D
25/09/2019,12:24:32,TEMP=19.2,BA=5.64,STAT.F
25/09/2019,12:40:02,TEMP=19.3,BA=5.64,STAT.A
25/09/2019,12:54:47,TEMP=18.9,BA=5.64,STAT.A
25/09/2019,13:06:52,TEMP=19.0,BA=5.64,STAT.A
25/09/2019,13:16:58,TEMP=18.8,BA=5.64,STAT.C
25/09/2019,13:30:58,TEMP=18.6,BA=5.64,STAT.A
25/09/2019,13:33:06,TEMP=18.8,BA=5.64,STAT.A
25/09/2019,13:39:38,TEMP=18.6,BA=5.64,STAT.A
25/09/2019,13:45:23,TEMP=18.5,BA=5.60,STAT.A
25/09/2019,13:50:31,TEMP=18.4,BA=5.60,STAT.B
25/09/2019,14:02:13,TEMP=18.1,BA=5.60,STAT.A
25/09/2019,14:09:35,TEMP=17.7,BA=5.60,STAT.A
25/09/2019,14:16:25,TEMP=17.4,BA=5.60,STAT.A
25/09/2019,14:22:02,TEMP=17.2,BA=5.60,STAT.A
25/09/2019,14:26:46,TEMP=16.9,BA=5.60,STAT.A
25/09/2019,14:30:47,TEMP=16.7,BA=5.60,STAT.A